Location: Newark
(48.8604°N, 2.3376°E)
Time: 23:38:24
(UTC+00:00)

XW-2C - Pass Details

Date: 10 December 2021
Orbit: 503 x 524 km, 97.5° (Epoch: 19 January)

Event Time Altitude Azimuth Distance (km) Brightness Sun altitude
Rises 17:37:02 0° 192° (SSW) 2,623 ? -16.0°
Reaches altitude 10° 17:39:20 10° 204° (SSW) 1,745 ? -16.4°
Maximum altitude 17:42:36 28° 265° (W) 1,004 ? -16.9°
Drops below altitude 10° 17:45:56 10° 325° (NW) 1,769 ? -17.5°
Sets 17:48:17 0° 338° (NNW) 2,666 ? -17.8°
